Home > Weather > Rio de Janeiro > Past weeks

Flag for Brazil Past Weather in Rio de Janeiro, Rio de Janeiro, Brazil — Yesterday and Last 2 Weeks

Now
72 °F

Passing clouds.


Feels Like: 67 °F
Forecast: 66 / 80 °F
Wind: 3 mph from Northeast

Location: Rio De Janeiro Airport

Current Time: Jul 2, 2016 at 6:41:48 AM

Latest Report: Jul 2, 2016 at 4:00 AM


Visibility: 5 mi

Pressure: 30.21 "Hg

Humidity: 94%

Dew Point: 70 °F

Location of Rio de JaneiroLocation

Past Weather in Rio de Janeiro — Graph

°F

Rio de Janeiro Temperature Yesterday

Maximum temperature yesterday: 75 °F (at 1:00 PM)
Minimum temperature yesterday: 68 °F (at 1:00 AM)
Average temperature yesterday: 71 °F

High & Low Weather Summary for the Past Weeks

 TemperatureHumidityPressure
High81 °F (Jun 17, 2:00 PM)100% (Jun 30, 3:00 AM)30.36 "Hg (Jun 30, 3:00 AM)
Low63 °F (Jun 17, 6:00 AM)45% (Jun 17, 2:00 PM)29.89 "Hg (Jun 28, 2:00 AM)
Average70 °F83%30.21 "Hg
* Reported Jun 17 4:00 AM — Jul 2 4:00 AM, Rio de Janeiro, Weather by CustomWeather, © 2016

Note: Actual official high and low records may vary slightly from our data, if they occured in-between our weather recording intervals... More about our weather records

Advertising

Rio de Janeiro Weather History for the Previous 24 Hours

Scroll right to see more
 ConditionsComfort  
Time TempWeatherWind HumidityBarometerVisibility
4:00 AM
Sat, Jul 2
72 °FPassing clouds.3 mph94%30.21 "Hg5 mi
3:00 AM72 °FPartly cloudy.2 mph94%30.21 "Hg4 mi
2:00 AM72 °FPartly cloudy.No wind94%30.21 "Hg4 mi
1:00 AM72 °FPartly cloudy.No wind94%30.24 "Hg4 mi
12:00 AM72 °FPartly cloudy.5 mph94%30.24 "Hg5 mi
11:00 PM
Fri, Jul 1
72 °FPartly cloudy.3 mph94%30.24 "Hg5 mi
10:00 PM72 °FPassing clouds.5 mph94%30.24 "Hg5 mi
9:00 PM72 °FPassing clouds.6 mph94%30.24 "Hg5 mi
8:00 PM72 °FPartly cloudy.8 mph94%30.24 "Hg6 mi
7:00 PM72 °FPassing clouds.8 mph94%30.21 "Hg5 mi
6:00 PM72 °FPassing clouds.7 mph88%30.21 "Hg5 mi
5:00 PM72 °FPassing clouds.7 mph88%30.18 "Hg4 mi
4:00 PM72 °FScattered clouds.8 mph88%30.18 "Hg4 mi
3:00 PM73 °FScattered clouds.9 mph94%30.18 "Hg4 mi
2:00 PM73 °FScattered clouds.12 mph83%30.21 "Hg4 mi
1:00 PM75 °FFog.7 mph78%30.24 "Hg2 mi
12:00 PM73 °FFog.5 mph83%30.24 "Hg2 mi
11:00 AM73 °FFog.6 mph83%30.27 "Hg2 mi
10:00 AM72 °FFog.5 mph88%30.27 "Hg2 mi
9:00 AM72 °FFog.3 mph88%30.27 "Hg2 mi
8:00 AM70 °FFog.5 mph94%30.27 "Hg2 mi
7:00 AM68 °FFog.3 mph100%30.24 "Hg2 mi
6:00 AM68 °FFog.2 mph94%30.21 "Hg3 mi
Weather by CustomWeather, © 2016

See weather overviewHow to use our weather pages